Flag Weather past 2 weeks in Clarington, Ontario, Canada

Now
30 °F

Overcast.


Feels Like: 24 °F
Forecast: N/A
Wind: 6 mph from Northeast

Location: Peterborough Airport

Current Time: Nov 26, 2014 at 6:15:40 PM

Latest Report: Nov 26, 2014 at 5:00 PM


Visibility: 9 mi

Pressure: 30.13 "Hg

Humidity: 69%

Dew point: 21 °F

Location of ClaringtonLocation

Historic Weather in Clarington — Graph

°F

Clarington temperature yesterday

Maximum temperature yesterday: 41 °F (at 12:00 AM)
Minimum temperature yesterday: 30 °F (at 10:00 PM)
Average temperature yesterday: 36 °F

Past Weeks' High & Low Weather Summary

 TemperatureHumidityPressure
High63 °F (Nov 24, 1:59 PM)100% (Nov 11, 11:00 PM)30.42 "Hg (Nov 11, 11:00 PM)
Low10 °F (Nov 21, 7:00 AM)50% (Nov 21, 1:00 PM)29.16 "Hg (Nov 24, 2:00 PM)
Average32 °F81%29.93 "Hg
* Reported Nov 11 5:00 PM — Nov 26 5:00 PM, Clarington, Weather by CustomWeather, © 2014

Note: Actual official high and low records may vary slightly from our data, if they occured in-between our weather recording intervals... More about our weather records

Advertising

Clarington weather history for previous 24 hours

 ConditionsComfort  
Time TempWeatherWind HumidityBarometerVisibility
5:00 PM
Nov 26
30 °FOvercast.6 mph69%30.13 "Hg9 mi
4:00 PM32 °FOvercast.6 mph64%30.16 "Hg9 mi
3:00 PM32 °FOvercast.7 mph69%30.17 "Hg9 mi
2:00 PM32 °FOvercast.5 mph69%30.18 "Hg9 mi
1:00 PM34 °FOvercast.3 mph65%30.18 "Hg9 mi
12:00 PM34 °FOvercast.5 mph70%30.18 "Hg9 mi
11:00 AM32 °FOvercast.8 mph75%30.19 "Hg9 mi
10:00 AM32 °FOvercast.3 mph80%30.23 "Hg9 mi
9:00 AM32 °FOvercast.2 mph87%30.27 "Hg9 mi
8:00 AM30 °FOvercast.3 mph93%30.22 "Hg9 mi
7:00 AM30 °FOvercast.2 mph86%30.23 "Hg9 mi
6:00 AM30 °FOvercast.2 mph93%30.25 "Hg9 mi
5:00 AM30 °FOvercast.2 mph86%30.21 "Hg9 mi
4:00 AM32 °FOvercast.2 mph75%30.21 "Hg9 mi
3:00 AM32 °FOvercast.3 mph75%30.21 "Hg9 mi
2:00 AM32 °FOvercast.7 mph75%30.20 "Hg9 mi
1:00 AM32 °FOvercast.5 mph80%30.20 "Hg9 mi
12:00 AM32 °FOvercast.6 mph80%30.20 "Hg9 mi
11:00 PM
Nov 25
30 °FClear.5 mph86%30.18 "Hg9 mi
10:00 PM30 °FClear.6 mph86%30.14 "Hg9 mi
9:00 PM32 °FPartly cloudy.12 mph80%30.11 "Hg9 mi
8:00 PM34 °FMostly cloudy.14 mph75%30.08 "Hg9 mi
7:00 PM34 °FPassing clouds.10 mph75%30.05 "Hg9 mi
6:00 PM34 °FClear.12 mph75%30.01 "Hg9 mi
Weather by CustomWeather, © 2014

See weather overviewHow to use our weather pages